Volver al catálogo

STARLINK-11418

ActivoComunicacionesVLEO
NORAD 63058·PAYLOAD·🇺🇸 United States

Lanzado Feb 21, 2025 desde Cape Canaveral Space Force Station

Loading…

Próximos Pases (próximas 24 horas)

TLE

ActualizadoSource: CelesTrak SupGP

Época: Sep 15, 2026, 02:11 UTC

1 63058C 25035G   26258.09145833  .00056426  00000+0  43837-3 0  2581
2 63058  43.0001 314.0693 0001652 247.2039 147.8064 15.70804346    18

Sigue STARLINK-11418 en tiempo real con AllMySat

Download on the App Store